| time (UTC) | temp F | wind direction | speed MPH | gust MPH | rain 1hr in | rain 24hr in | rain mn in | humidity % | barometer mb |
| 20260507234704 | 57 | 263 | 0.0 | 3.0 | 0.00 | 0.74 | 0.23 | 50 | 1008.4 |
| 20260507234700 | 57 | 266 | 0.0 | 0.0 | 0.00 | 0.23 | 0.23 | 53 | 1025.0 |
| 20260507234156 | 57 | 284 | 0.0 | 0.0 | 0.00 | 0.23 | 0.23 | 51 | 1025.1 |
| 20260507233704 | 57 | 286 | 0.0 | 3.0 | 0.00 | 0.74 | 0.23 | 53 | 1008.1 |
| 20260507233653 | 57 | 286 | 0.0 | 3.0 | 0.00 | 0.23 | 0.23 | 54 | 1024.9 |
| 20260507233203 | 58 | 274 | 0.0 | 0.0 | 0.00 | 0.74 | 0.23 | 51 | 1008.2 |
| 20260507233151 | 58 | 274 | 0.0 | 0.0 | 0.00 | 0.23 | 0.23 | 52 | 1024.9 |
| 20260507232703 | 58 | 267 | 0.0 | 0.0 | 0.00 | 0.74 | 0.23 | 49 | 1008.3 |
| 20260507232648 | 58 | 270 | 0.0 | 0.0 | 0.00 | 0.23 | 0.23 | 49 | 1024.8 |
| 20260507232203 | 59 | 298 | 0.0 | 0.0 | 0.00 | 0.74 | 0.23 | 46 | 1008.0 |
| 20260507232145 | 59 | 298 | 0.0 | 0.0 | 0.00 | 0.23 | 0.23 | 47 | 1024.6 |
| 20260507231703 | 59 | 298 | 0.0 | 0.0 | 0.00 | 0.74 | 0.23 | 47 | 1008.1 |
| 20260507231641 | 59 | 298 | 0.0 | 0.0 | 0.00 | 0.23 | 0.23 | 47 | 1024.8 |
| 20260507231133 | 59 | 298 | 0.0 | 0.0 | 0.00 | 0.23 | 0.23 | 45 | 1024.9 |
| 20260507230704 | 59 | 327 | 0.0 | 0.0 | 0.00 | 0.74 | 0.23 | 48 | 1008.2 |
| 20260507230629 | 59 | 327 | 0.0 | 0.0 | 0.00 | 0.23 | 0.23 | 48 | 1024.8 |
| 20260507230203 | 59 | 327 | 0.0 | 0.0 | 0.00 | 0.74 | 0.23 | 47 | 1008.4 |
| 20260507230126 | 59 | 327 | 0.0 | 0.0 | 0.00 | 0.23 | 0.23 | 47 | 1025.1 |
| 20260507225706 | 60 | 320 | 0.0 | 1.0 | 0.00 | 0.74 | 0.23 | 49 | 1008.2 |
| 20260507225620 | 60 | 320 | 0.0 | 0.0 | 0.00 | 0.23 | 0.23 | 49 | 1024.9 |
| 20260507225203 | 61 | 302 | 0.0 | 0.0 | 0.00 | 0.74 | 0.23 | 46 | 1007.9 |
| 20260507225117 | 61 | 302 | 0.0 | 0.0 | 0.00 | 0.23 | 0.23 | 46 | 1024.5 |
| 20260507224704 | 61 | 359 | 0.0 | 0.0 | 0.00 | 0.74 | 0.23 | 46 | 1008.2 |
| 20260507224613 | 61 | 359 | 0.0 | 0.0 | 0.00 | 0.23 | 0.23 | 47 | 1024.8 |
| 20260507224110 | 61 | 359 | 0.0 | 0.0 | 0.00 | 0.23 | 0.23 | 43 | 1024.7 |
| 20260507223705 | 61 | 318 | 0.0 | 3.0 | 0.00 | 0.74 | 0.23 | 44 | 1008.0 |
| 20260507223606 | 61 | 320 | 0.0 | 0.0 | 0.00 | 0.23 | 0.23 | 44 | 1024.7 |
| 20260507223103 | 61 | 322 | 0.0 | 2.0 | 0.00 | 0.23 | 0.23 | 46 | 1024.7 |
| 20260507222703 | 62 | 302 | 0.0 | 5.0 | 0.00 | 0.74 | 0.23 | 46 | 1008.0 |
| 20260507222600 | 62 | 303 | 0.0 | 0.0 | 0.00 | 0.23 | 0.23 | 47 | 1024.7 |
| 20260507222203 | 61 | 351 | 1.0 | 7.0 | 0.00 | 0.74 | 0.23 | 47 | 1008.1 |
| 20260507222056 | 61 | 351 | 0.0 | 5.0 | 0.00 | 0.23 | 0.23 | 48 | 1024.7 |
| 20260507221703 | 62 | 344 | 1.0 | 3.0 | 0.00 | 0.74 | 0.23 | 46 | 1007.9 |
| 20260507221552 | 62 | 342 | 2.0 | 3.0 | 0.00 | 0.23 | 0.23 | 46 | 1024.6 |
| 20260507221203 | 62 | 347 | 1.0 | 7.0 | 0.00 | 0.74 | 0.23 | 47 | 1008.2 |
| 20260507221049 | 62 | 347 | 0.0 | 3.0 | 0.00 | 0.23 | 0.23 | 47 | 1024.8 |
| 20260507220547 | 62 | 1 | 3.0 | 7.0 | 0.00 | 0.23 | 0.23 | 45 | 1024.9 |
| 20260507220205 | 62 | 310 | 0.0 | 5.0 | 0.00 | 0.74 | 0.23 | 45 | 1008.1 |
| 20260507220044 | 62 | 306 | 0.0 | 2.0 | 0.00 | 0.23 | 0.23 | 45 | 1024.8 |
| 20260507215704 | 62 | 285 | 1.0 | 8.0 | 0.00 | 0.74 | 0.23 | 44 | 1008.2 |
| 20260507215540 | 62 | 277 | 1.0 | 3.0 | 0.00 | 0.23 | 0.23 | 44 | 1024.9 |
| 20260507215038 | 62 | 31 | 5.0 | 10.0 | 0.00 | 0.23 | 0.23 | 44 | 1024.7 |
| 20260507214704 | 62 | 3 | 1.0 | 5.0 | 0.00 | 0.74 | 0.23 | 45 | 1008.2 |
| 20260507214535 | 62 | 0 | 2.0 | 3.0 | 0.00 | 0.23 | 0.23 | 45 | 1024.9 |
| 20260507214031 | 62 | 310 | 0.0 | 0.0 | 0.00 | 0.23 | 0.23 | 46 | 1024.9 |
| 20260507213704 | 62 | 328 | 1.0 | 5.0 | 0.00 | 0.74 | 0.23 | 43 | 1008.3 |
| 20260507213527 | 62 | 13 | 0.0 | 5.0 | 0.00 | 0.23 | 0.23 | 42 | 1024.9 |
| 20260507213203 | 62 | 307 | 1.0 | 3.0 | 0.00 | 0.74 | 0.23 | 43 | 1008.2 |
| 20260507213025 | 62 | 282 | 0.0 | 0.0 | 0.00 | 0.23 | 0.23 | 46 | 1025.0 |
| 20260507212703 | 62 | 232 | 0.0 | 1.0 | 0.00 | 0.74 | 0.23 | 45 | 1008.2 |
| 20260507212520 | 62 | 232 | 0.0 | 2.0 | 0.00 | 0.23 | 0.23 | 44 | 1025.0 |
| 20260507212204 | 62 | 303 | 0.0 | 3.0 | 0.00 | 0.74 | 0.23 | 44 | 1008.3 |
| 20260507212017 | 62 | 208 | 0.0 | 0.0 | 0.00 | 0.23 | 0.23 | 43 | 1024.9 |
| 20260507211514 | 61 | 309 | 0.0 | 7.0 | 0.00 | 0.23 | 0.23 | 43 | 1025.0 |
| 20260507211204 | 61 | 338 | 2.0 | 12.0 | 0.00 | 0.74 | 0.23 | 44 | 1008.1 |
| 20260507211005 | 61 | 316 | 6.0 | 10.0 | 0.00 | 0.23 | 0.23 | 43 | 1025.2 |
| 20260507210704 | 60 | 292 | 0.0 | 0.0 | 0.00 | 0.74 | 0.23 | 46 | 1008.1 |
| 20260507210502 | 60 | 319 | 0.0 | 0.0 | 0.00 | 0.23 | 0.23 | 46 | 1024.8 |
| 20260507210203 | 60 | 287 | 0.0 | 12.0 | 0.00 | 0.74 | 0.23 | 48 | 1008.2 |
| 20260507205959 | 61 | 287 | 0.0 | 11.0 | 0.00 | 0.23 | 0.23 | 49 | 1024.8 |
| 20260507205703 | 61 | 315 | 0.0 | 5.0 | 0.00 | 0.74 | 0.23 | 46 | 1008.1 |
| 20260507205456 | 62 | 305 | 0.0 | 5.0 | 0.00 | 0.23 | 0.23 | 44 | 1024.6 |
| 20260507205205 | 62 | 295 | 1.0 | 7.0 | 0.00 | 0.74 | 0.23 | 45 | 1008.1 |
| 20260507204952 | 63 | 333 | 4.0 | 7.0 | 0.00 | 0.23 | 0.23 | 44 | 1024.9 |
| 20260507204448 | 62 | 8 | 0.0 | 5.0 | 0.00 | 0.23 | 0.23 | 45 | 1024.6 |
| 20260507204204 | 62 | 293 | 0.0 | 8.0 | 0.00 | 0.74 | 0.23 | 45 | 1007.7 |
| 20260507203946 | 62 | 315 | 0.0 | 3.0 | 0.00 | 0.23 | 0.23 | 47 | 1024.7 |
| 20260507203703 | 62 | 355 | 1.0 | 8.0 | 0.00 | 0.74 | 0.23 | 43 | 1008.0 |
| 20260507203444 | 62 | 8 | 1.0 | 5.0 | 0.00 | 0.23 | 0.23 | 48 | 1024.7 |
| 20260507203203 | 62 | 345 | 1.0 | 12.0 | 0.00 | 0.74 | 0.23 | 44 | 1007.8 |
| 20260507202940 | 62 | 315 | 0.0 | 11.0 | 0.00 | 0.23 | 0.23 | 46 | 1024.5 |
| 20260507202703 | 62 | 307 | 3.0 | 8.0 | 0.00 | 0.74 | 0.23 | 43 | 1008.0 |
| 20260507202436 | 62 | 308 | 2.0 | 8.0 | 0.00 | 0.23 | 0.23 | 42 | 1024.7 |
| 20260507202203 | 62 | 313 | 1.0 | 9.0 | 0.00 | 0.74 | 0.23 | 46 | 1007.9 |
| 20260507201932 | 63 | 297 | 1.0 | 7.0 | 0.00 | 0.23 | 0.23 | 43 | 1024.6 |
| 20260507201703 | 63 | 312 | 3.0 | 9.0 | 0.00 | 0.74 | 0.23 | 43 | 1008.0 |
| 20260507201427 | 64 | 330 | 0.0 | 3.0 | 0.00 | 0.23 | 0.23 | 43 | 1024.8 |
| 20260507201204 | 64 | 289 | 0.0 | 7.0 | 0.00 | 0.74 | 0.23 | 41 | 1008.1 |
| 20260507200924 | 64 | 297 | 0.0 | 2.0 | 0.00 | 0.23 | 0.23 | 46 | 1024.7 |
| 20260507200704 | 63 | 332 | 2.0 | 8.0 | 0.00 | 0.74 | 0.23 | 44 | 1008.2 |
| 20260507200414 | 64 | 10 | 5.0 | 8.0 | 0.00 | 0.23 | 0.23 | 42 | 1024.9 |
| 20260507195910 | 64 | 334 | 0.0 | 2.0 | 0.00 | 0.23 | 0.23 | 44 | 1024.9 |
| 20260507195704 | 64 | 318 | 1.0 | 8.0 | 0.00 | 0.74 | 0.23 | 42 | 1008.1 |
| 20260507195408 | 63 | 8 | 0.0 | 5.0 | 0.00 | 0.23 | 0.23 | 41 | 1024.7 |
| 20260507195204 | 64 | 16 | 1.0 | 8.0 | 0.00 | 0.74 | 0.23 | 45 | 1008.0 |
| 20260507194905 | 64 | 334 | 0.0 | 5.0 | 0.00 | 0.23 | 0.23 | 44 | 1024.7 |
| 20260507194704 | 65 | 344 | 1.0 | 7.0 | 0.00 | 0.74 | 0.23 | 42 | 1008.1 |
| 20260507194402 | 65 | 304 | 2.0 | 3.0 | 0.00 | 0.23 | 0.23 | 43 | 1024.9 |
| 20260507194204 | 64 | 251 | 0.0 | 5.0 | 0.00 | 0.74 | 0.23 | 42 | 1008.4 |
| 20260507193858 | 63 | 337 | 0.0 | 3.0 | 0.00 | 0.23 | 0.23 | 42 | 1025.0 |
| 20260507193703 | 63 | 234 | 1.0 | 16.0 | 0.00 | 0.74 | 0.23 | 41 | 1008.3 |
| 20260507193355 | 63 | 326 | 8.0 | 16.0 | 0.00 | 0.23 | 0.23 | 43 | 1025.0 |
| 20260507193204 | 63 | 9 | 2.0 | 8.0 | 0.00 | 0.74 | 0.23 | 41 | 1008.4 |
| 20260507192851 | 63 | 302 | 0.0 | 8.0 | 0.00 | 0.23 | 0.23 | 42 | 1025.0 |
| 20260507192704 | 64 | 75 | 2.0 | 7.0 | 0.00 | 0.74 | 0.23 | 41 | 1008.4 |
| 20260507192348 | 64 | 254 | 0.0 | 3.0 | 0.00 | 0.23 | 0.23 | 41 | 1025.0 |
| 20260507192204 | 63 | 302 | 1.0 | 12.0 | 0.00 | 0.74 | 0.23 | 44 | 1008.5 |
| 20260507191844 | 63 | 286 | 0.0 | 7.0 | 0.00 | 0.23 | 0.23 | 41 | 1025.2 |
| 20260507191704 | 63 | 25 | 6.0 | 12.0 | 0.00 | 0.74 | 0.23 | 43 | 1008.6 |
| 20260507191340 | 64 | 297 | 5.0 | 8.0 | 0.00 | 0.23 | 0.23 | 46 | 1025.3 |
| 20260507191204 | 64 | 279 | 2.0 | 12.0 | 0.00 | 0.74 | 0.23 | 49 | 1008.6 |
| 20260507190838 | 63 | 313 | 0.0 | 3.0 | 0.00 | 0.23 | 0.23 | 45 | 1025.5 |
| 20260507190704 | 62 | 294 | 0.0 | 12.0 | 0.00 | 0.74 | 0.23 | 42 | 1008.4 |
| 20260507190336 | 62 | 331 | 5.0 | 7.0 | 0.00 | 0.23 | 0.23 | 43 | 1025.3 |
| 20260507190205 | 62 | 33 | 3.0 | 12.0 | 0.00 | 0.74 | 0.23 | 45 | 1009.0 |
| 20260507185834 | 62 | 314 | 0.0 | 5.0 | 0.00 | 0.23 | 0.23 | 44 | 1025.6 |
| 20260507185705 | 62 | 21 | 4.0 | 14.0 | 0.00 | 0.74 | 0.23 | 47 | 1008.8 |
| 20260507185331 | 62 | 302 | 0.0 | 14.0 | 0.00 | 0.23 | 0.23 | 49 | 1025.5 |
| 20260507185203 | 62 | 11 | 5.0 | 20.0 | 0.00 | 0.74 | 0.23 | 48 | 1009.1 |
| 20260507184828 | 63 | 359 | 10.0 | 18.0 | 0.00 | 0.23 | 0.23 | 46 | 1025.5 |
| 20260507184704 | 63 | 342 | 4.0 | 14.0 | 0.00 | 0.74 | 0.23 | 46 | 1009.0 |
| 20260507184326 | 63 | 282 | 0.0 | 2.0 | 0.00 | 0.23 | 0.23 | 45 | 1025.7 |
| 20260507183822 | 63 | 288 | 0.0 | 2.0 | 0.00 | 0.23 | 0.23 | 49 | 1025.8 |
| 20260507183704 | 62 | 289 | 1.0 | 8.0 | 0.00 | 0.74 | 0.23 | 46 | 1009.1 |
| 20260507183314 | 62 | 283 | 1.0 | 7.0 | 0.00 | 0.23 | 0.23 | 40 | 1025.8 |
| 20260507183203 | 62 | 295 | 1.0 | 17.0 | 0.00 | 0.74 | 0.23 | 47 | 1009.1 |
| 20260507182811 | 62 | 347 | 1.0 | 7.0 | 0.00 | 0.23 | 0.23 | 48 | 1025.7 |
| 20260507182307 | 61 | 28 | 0.0 | 10.0 | 0.00 | 0.23 | 0.23 | 49 | 1025.8 |
| 20260507182207 | 61 | 14 | 5.0 | 14.0 | 0.00 | 0.74 | 0.23 | 50 | 1009.1 |
| 20260507181803 | 62 | 34 | 8.0 | 14.0 | 0.00 | 0.23 | 0.23 | 47 | 1025.6 |
| 20260507181704 | 62 | 63 | 6.0 | 13.0 | 0.00 | 0.74 | 0.23 | 46 | 1008.9 |
| 20260507181259 | 62 | 302 | 5.0 | 7.0 | 0.00 | 0.23 | 0.23 | 45 | 1025.8 |
| 20260507181204 | 62 | 318 | 3.0 | 13.0 | 0.00 | 0.75 | 0.23 | 48 | 1009.1 |
| 20260507180756 | 61 | 19 | 4.0 | 10.0 | 0.00 | 0.23 | 0.23 | 47 | 1025.6 |
| 20260507180704 | 61 | 22 | 7.0 | 13.0 | 0.00 | 0.75 | 0.23 | 48 | 1009.3 |
| 20260507180253 | 62 | 0 | 7.0 | 10.0 | 0.00 | 0.23 | 0.23 | 50 | 1026.0 |
| 20260507180204 | 62 | 316 | 3.0 | 9.0 | 0.00 | 0.75 | 0.23 | 45 | 1009.3 |
| 20260507175748 | 61 | 340 | 1.0 | 7.0 | 0.00 | 0.23 | 0.23 | 45 | 1026.0 |
| 20260507175706 | 61 | 327 | 3.0 | 13.0 | 0.00 | 0.75 | 0.23 | 44 | 1009.1 |
| 20260507175246 | 62 | 310 | 1.0 | 10.0 | 0.00 | 0.23 | 0.23 | 46 | 1026.0 |
| 20260507175203 | 62 | 343 | 1.0 | 13.0 | 0.00 | 0.75 | 0.23 | 49 | 1009.4 |
| 20260507174743 | 61 | 303 | 0.0 | 8.0 | 0.00 | 0.23 | 0.23 | 56 | 1026.1 |
| 20260507174703 | 61 | 313 | 4.0 | 16.0 | 0.00 | 0.75 | 0.23 | 47 | 1009.2 |
| 20260507174241 | 61 | 330 | 5.0 | 11.0 | 0.00 | 0.23 | 0.23 | 46 | 1026.0 |
| 20260507174204 | 62 | 352 | 5.0 | 16.0 | 0.00 | 0.75 | 0.23 | 48 | 1009.4 |
| 20260507173739 | 61 | 238 | 0.0 | 7.0 | 0.00 | 0.23 | 0.23 | 46 | 1026.1 |
| 20260507173704 | 61 | 280 | 2.0 | 14.0 | 0.00 | 0.75 | 0.23 | 45 | 1009.4 |
| 20260507173235 | 61 | 297 | 0.0 | 7.0 | 0.00 | 0.23 | 0.23 | 49 | 1026.2 |
| 20260507172731 | 61 | 23 | 4.0 | 7.0 | 0.00 | 0.23 | 0.23 | 49 | 1026.3 |
| 20260507172704 | 61 | 318 | 4.0 | 13.0 | 0.00 | 0.75 | 0.23 | 50 | 1009.5 |
| 20260507172223 | 61 | 308 | 9.0 | 13.0 | 0.00 | 0.23 | 0.23 | 46 | 1026.3 |
| 20260507172203 | 61 | 310 | 3.0 | 13.0 | 0.00 | 0.75 | 0.23 | 50 | 1009.7 |
| 20260507171723 | 61 | 23 | 5.0 | 10.0 | 0.00 | 0.23 | 0.23 | 48 | 1026.7 |
| 20260507171220 | 61 | 1 | 2.0 | 8.0 | 0.00 | 0.23 | 0.23 | 50 | 1026.9 |
| 20260507171204 | 61 | 0 | 3.0 | 9.0 | 0.00 | 0.75 | 0.23 | 48 | 1010.1 |
| 20260507170717 | 61 | 348 | 1.0 | 3.0 | 0.00 | 0.23 | 0.23 | 54 | 1026.6 |
| 20260507170214 | 60 | 333 | 2.0 | 3.0 | 0.00 | 0.23 | 0.23 | 47 | 1026.6 |
| 20260507170204 | 61 | 345 | 2.0 | 7.0 | 0.00 | 0.75 | 0.23 | 50 | 1010.0 |
| 20260507165709 | 59 | 39 | 0.0 | 5.0 | 0.00 | 0.23 | 0.23 | 60 | 1026.9 |
| 20260507165704 | 59 | 14 | 2.0 | 8.0 | 0.00 | 0.75 | 0.23 | 55 | 1010.3 |
| 20260507165206 | 59 | 316 | 3.0 | 7.0 | 0.00 | 0.23 | 0.23 | 53 | 1027.0 |
| 20260507165204 | 59 | 331 | 3.0 | 13.0 | 0.00 | 0.75 | 0.23 | 54 | 1010.3 |
| 20260507164703 | 59 | 43 | 3.0 | 14.0 | 0.00 | 0.75 | 0.23 | 53 | 1010.6 |
| 20260507164202 | 60 | 24 | 5.0 | 14.0 | 0.00 | 0.75 | 0.23 | 52 | 1010.5 |
| 20260507164200 | 60 | 30 | 5.0 | 14.0 | 0.00 | 0.23 | 0.23 | 51 | 1027.1 |
| 20260507163704 | 59 | 269 | 1.0 | 7.0 | 0.00 | 0.75 | 0.23 | 53 | 1010.4 |
| 20260507163656 | 60 | 352 | 0.0 | 3.0 | 0.00 | 0.23 | 0.23 | 55 | 1027.0 |
| 20260507163203 | 58 | 70 | 3.0 | 7.0 | 0.00 | 0.75 | 0.23 | 57 | 1010.6 |
| 20260507163154 | 58 | 87 | 5.0 | 7.0 | 0.00 | 0.23 | 0.23 | 55 | 1027.1 |
| 20260507162703 | 58 | 85 | 3.0 | 12.0 | 0.00 | 0.75 | 0.23 | 57 | 1010.8 |
| 20260507162650 | 58 | 10 | 0.0 | 7.0 | 0.00 | 0.23 | 0.23 | 56 | 1027.5 |
| 20260507162204 | 58 | 58 | 4.0 | 14.0 | 0.00 | 0.75 | 0.23 | 57 | 1010.9 |
| 20260507162146 | 58 | 69 | 6.0 | 10.0 | 0.00 | 0.23 | 0.23 | 59 | 1027.6 |
| 20260507161703 | 58 | 351 | 6.0 | 16.0 | 0.00 | 0.75 | 0.23 | 57 | 1010.9 |
| 20260507161642 | 58 | 323 | 2.0 | 13.0 | 0.00 | 0.23 | 0.23 | 59 | 1027.6 |
| 20260507161203 | 58 | 24 | 3.0 | 12.0 | 0.00 | 0.75 | 0.23 | 58 | 1010.9 |
| 20260507161139 | 58 | 32 | 4.0 | 11.0 | 0.00 | 0.23 | 0.23 | 57 | 1027.6 |
| 20260507160635 | 58 | 80 | 4.0 | 10.0 | 0.00 | 0.23 | 0.23 | 57 | 1027.6 |
| 20260507160203 | 58 | 23 | 5.0 | 14.0 | 0.00 | 0.76 | 0.23 | 59 | 1011.0 |
| 20260507160132 | 58 | 22 | 10.0 | 14.0 | 0.00 | 0.23 | 0.23 | 58 | 1027.6 |
| 20260507155705 | 58 | 57 | 2.0 | 12.0 | 0.00 | 0.77 | 0.23 | 62 | 1010.9 |
| 20260507155627 | 58 | 334 | 1.0 | 5.0 | 0.00 | 0.23 | 0.23 | 63 | 1027.6 |
| 20260507155204 | 58 | 351 | 2.0 | 9.0 | 0.00 | 0.77 | 0.23 | 65 | 1010.9 |
| 20260507155119 | 58 | 26 | 0.0 | 5.0 | 0.00 | 0.23 | 0.23 | 68 | 1027.6 |
| 20260507154703 | 58 | 37 | 2.0 | 12.0 | 0.00 | 0.79 | 0.23 | 64 | 1010.9 |
| 20260507154615 | 58 | 9 | 0.0 | 11.0 | 0.00 | 0.23 | 0.23 | 65 | 1027.6 |
| 20260507154203 | 57 | 328 | 2.0 | 9.0 | 0.00 | 0.80 | 0.23 | 63 | 1010.9 |
| 20260507154112 | 57 | 327 | 2.0 | 10.0 | 0.00 | 0.23 | 0.23 | 63 | 1027.5 |
| 20260507153703 | 57 | 0 | 3.0 | 12.0 | 0.00 | 0.81 | 0.23 | 63 | 1011.1 |
| 20260507153608 | 57 | 340 | 2.0 | 8.0 | 0.00 | 0.23 | 0.23 | 62 | 1027.7 |
| 20260507153204 | 57 | 35 | 3.0 | 12.0 | 0.00 | 0.82 | 0.23 | 65 | 1011.2 |
| 20260507153105 | 57 | 47 | 3.0 | 5.0 | 0.00 | 0.23 | 0.23 | 66 | 1027.8 |
| 20260507152703 | 57 | 314 | 2.0 | 9.0 | 0.00 | 0.83 | 0.23 | 64 | 1011.4 |
| 20260507152601 | 57 | 321 | 3.0 | 8.0 | 0.00 | 0.23 | 0.23 | 63 | 1028.1 |
| 20260507152057 | 57 | 11 | 3.0 | 8.0 | 0.00 | 0.23 | 0.23 | 63 | 1028.1 |
| 20260507151704 | 57 | 82 | 1.0 | 5.0 | 0.00 | 0.84 | 0.23 | 63 | 1011.5 |
| 20260507151554 | 57 | 349 | 0.0 | 2.0 | 0.00 | 0.23 | 0.23 | 63 | 1028.1 |
| 20260507151203 | 56 | 73 | 1.0 | 8.0 | 0.00 | 0.85 | 0.23 | 65 | 1011.5 |
| 20260507151052 | 57 | 62 | 1.0 | 5.0 | 0.00 | 0.23 | 0.23 | 64 | 1028.1 |
| 20260507150549 | 57 | 345 | 0.0 | 7.0 | 0.00 | 0.23 | 0.23 | 65 | 1028.4 |
| 20260507150203 | 56 | 21 | 3.0 | 8.0 | 0.00 | 0.88 | 0.23 | 65 | 1011.5 |
| 20260507150045 | 56 | 234 | 1.0 | 8.0 | 0.00 | 0.23 | 0.23 | 64 | 1028.2 |
| 20260507145704 | 57 | 303 | 3.0 | 7.0 | 0.00 | 0.89 | 0.23 | 66 | 1011.7 |
| 20260507145540 | 57 | 309 | 4.0 | 7.0 | 0.00 | 0.23 | 0.23 | 66 | 1028.4 |
| 20260507145204 | 56 | 43 | 3.0 | 7.0 | 0.00 | 0.90 | 0.23 | 65 | 1011.7 |
| 20260507145038 | 56 | 50 | 5.0 | 7.0 | 0.00 | 0.23 | 0.23 | 65 | 1028.4 |
| 20260507144703 | 55 | 3 | 0.0 | 8.0 | 0.00 | 0.91 | 0.23 | 66 | 1011.8 |
| 20260507144534 | 55 | 17 | 0.0 | 5.0 | 0.00 | 0.23 | 0.23 | 66 | 1028.5 |
| 20260507144203 | 54 | 50 | 2.0 | 9.0 | 0.00 | 0.92 | 0.23 | 66 | 1012.1 |
| 20260507144032 | 54 | 18 | 2.0 | 8.0 | 0.00 | 0.23 | 0.23 | 66 | 1028.9 |
| 20260507143703 | 54 | 6 | 1.0 | 9.0 | 0.00 | 0.93 | 0.23 | 69 | 1011.8 |
| 20260507143529 | 54 | 0 | 0.0 | 7.0 | 0.00 | 0.23 | 0.23 | 69 | 1028.5 |
| 20260507143027 | 53 | 38 | 7.0 | 8.0 | 0.00 | 0.23 | 0.23 | 68 | 1028.7 |
| 20260507142703 | 53 | 3 | 5.0 | 12.0 | 0.00 | 0.94 | 0.23 | 69 | 1012.0 |
| 20260507142522 | 54 | 16 | 6.0 | 11.0 | 0.00 | 0.23 | 0.23 | 67 | 1028.7 |
| 20260507142204 | 54 | 324 | 4.0 | 13.0 | 0.00 | 0.94 | 0.23 | 69 | 1012.1 |
| 20260507142018 | 53 | 27 | 4.0 | 10.0 | 0.00 | 0.23 | 0.23 | 68 | 1028.8 |
| 20260507141703 | 54 | 44 | 6.0 | 13.0 | 0.00 | 0.95 | 0.23 | 69 | 1012.2 |
| 20260507141515 | 54 | 21 | 8.0 | 13.0 | 0.00 | 0.23 | 0.23 | 68 | 1028.7 |
| 20260507141203 | 54 | 336 | 5.0 | 16.0 | 0.00 | 0.96 | 0.23 | 67 | 1012.0 |
| 20260507141007 | 54 | 44 | 3.0 | 13.0 | 0.00 | 0.23 | 0.23 | 66 | 1028.8 |
| 20260507140704 | 54 | 336 | 7.0 | 16.0 | 0.00 | 0.97 | 0.23 | 67 | 1012.0 |
| 20260507140503 | 54 | 65 | 7.0 | 10.0 | 0.00 | 0.23 | 0.23 | 66 | 1028.7 |
| 20260507140203 | 55 | 358 | 7.0 | 14.0 | 0.00 | 0.98 | 0.23 | 67 | 1011.9 |
| 20260507140000 | 55 | 41 | 7.0 | 14.0 | 0.00 | 0.23 | 0.23 | 67 | 1028.6 |
| 20260507135703 | 55 | 30 | 3.0 | 13.0 | 0.00 | 0.99 | 0.23 | 67 | 1012.0 |
| 20260507135457 | 55 | 348 | 4.0 | 11.0 | 0.00 | 0.23 | 0.23 | 65 | 1028.7 |
| 20260507134954 | 55 | 11 | 11.0 | 16.0 | 0.00 | 0.23 | 0.23 | 71 | 1028.7 |
| 20260507134703 | 54 | 11 | 5.0 | 13.0 | 0.00 | 0.99 | 0.23 | 71 | 1012.1 |
| 20260507134450 | 54 | 346 | 9.0 | 13.0 | 0.00 | 0.23 | 0.23 | 72 | 1028.7 |
| 20260507134204 | 53 | 15 | 2.0 | 9.0 | 0.00 | 0.99 | 0.23 | 75 | 1012.2 |
| 20260507133946 | 53 | 3 | 1.0 | 5.0 | 0.00 | 0.23 | 0.23 | 74 | 1028.7 |
| 20260507133704 | 52 | 352 | 5.0 | 12.0 | 0.00 | 0.99 | 0.23 | 77 | 1012.2 |
| 20260507133443 | 52 | 18 | 7.0 | 10.0 | 0.00 | 0.23 | 0.23 | 77 | 1028.9 |
| 20260507133203 | 51 | 325 | 3.0 | 7.0 | 0.00 | 0.99 | 0.23 | 88 | 1012.4 |
| 20260507132941 | 51 | 339 | 5.0 | 7.0 | 0.00 | 0.23 | 0.23 | 89 | 1029.0 |
| 20260507132437 | 51 | 312 | 0.0 | 2.0 | 0.00 | 0.23 | 0.23 | 93 | 1029.0 |
| 20260507132204 | 51 | 291 | 0.0 | 3.0 | 0.00 | 0.99 | 0.23 | 98 | 1012.3 |
| 20260507131933 | 50 | 347 | 0.0 | 0.0 | 0.00 | 0.23 | 0.23 | 99 | 1029.0 |
| 20260507131703 | 49 | 321 | 0.0 | 5.0 | 0.00 | 0.99 | 0.23 | 99 | 1012.2 |
| 20260507131431 | 48 | 323 | 0.0 | 3.0 | 0.00 | 0.23 | 0.23 | 99 | 1028.9 |
| 20260507131203 | 48 | 338 | 1.0 | 8.0 | 0.00 | 0.99 | 0.23 | 99 | 1012.2 |
| 20260507130928 | 48 | 346 | 0.0 | 8.0 | 0.00 | 0.23 | 0.23 | 99 | 1028.9 |
| 20260507130703 | 48 | 354 | 1.0 | 8.0 | 0.00 | 0.99 | 0.23 | 99 | 1012.3 |
| 20260507130425 | 47 | 323 | 0.0 | 8.0 | 0.00 | 0.23 | 0.23 | 99 | 1028.8 |
| 20260507130203 | 48 | 0 | 1.0 | 9.0 | 0.00 | 0.99 | 0.23 | 99 | 1012.2 |
| 20260507125924 | 47 | 332 | 0.0 | 3.0 | 0.00 | 0.23 | 0.23 | 99 | 1028.8 |
| 20260507125421 | 47 | 352 | 3.0 | 10.0 | 0.00 | 0.23 | 0.23 | 99 | 1028.6 |
| 20260507125204 | 47 | 307 | 0.0 | 7.0 | 0.00 | 0.99 | 0.23 | 99 | 1012.0 |
| 20260507124918 | 47 | 349 | 4.0 | 5.0 | 0.00 | 0.23 | 0.23 | 99 | 1028.8 |
| 20260507124704 | 47 | 316 | 1.0 | 8.0 | 0.00 | 0.99 | 0.23 | 99 | 1012.1 |
| 20260507124414 | 48 | 345 | 5.0 | 7.0 | 0.00 | 0.23 | 0.23 | 99 | 1028.7 |
| 20260507124203 | 48 | 332 | 0.0 | 3.0 | 0.00 | 0.99 | 0.23 | 99 | 1012.0 |
| 20260507123913 | 47 | 303 | 0.0 | 0.0 | 0.00 | 0.23 | 0.23 | 99 | 1028.8 |
| 20260507123703 | 47 | 329 | 0.0 | 7.0 | 0.00 | 0.99 | 0.23 | 99 | 1012.2 |
| 20260507123410 | 47 | 311 | 0.0 | 0.0 | 0.00 | 0.23 | 0.23 | 99 | 1028.9 |
| 20260507123205 | 47 | 318 | 1.0 | 8.0 | 0.00 | 0.99 | 0.23 | 99 | 1012.3 |
| 20260507122906 | 47 | 334 | 4.0 | 7.0 | 0.00 | 0.23 | 0.23 | 99 | 1028.9 |
| 20260507122705 | 47 | 355 | 2.0 | 9.0 | 0.00 | 0.99 | 0.23 | 99 | 1012.1 |
| 20260507122401 | 47 | 316 | 0.0 | 2.0 | 0.00 | 0.23 | 0.23 | 99 | 1029.0 |
| 20260507121858 | 47 | 330 | 0.0 | 5.0 | 0.00 | 0.23 | 0.23 | 99 | 1028.9 |
| 20260507121704 | 48 | 335 | 0.0 | 7.0 | 0.00 | 0.99 | 0.23 | 99 | 1012.2 |
| 20260507121353 | 47 | 334 | 0.0 | 5.0 | 0.00 | 0.23 | 0.23 | 99 | 1029.0 |
| 20260507121203 | 47 | 324 | 1.0 | 8.0 | 0.00 | 0.99 | 0.23 | 99 | 1012.2 |
| 20260507120850 | 47 | 331 | 0.0 | 7.0 | 0.00 | 0.23 | 0.23 | 99 | 1028.7 |
| 20260507120704 | 48 | 348 | 1.0 | 8.0 | 0.00 | 0.99 | 0.23 | 99 | 1012.1 |
| 20260507120346 | 48 | 295 | 0.0 | 2.0 | 0.00 | 0.23 | 0.23 | 99 | 1028.6 |
| 20260507120204 | 48 | 325 | 0.0 | 5.0 | 0.00 | 0.99 | 0.23 | 99 | 1012.1 |
| 20260507115843 | 47 | 305 | 0.0 | 3.0 | 0.00 | 0.23 | 0.23 | 99 | 1028.7 |
| 20260507115703 | 48 | 325 | 1.0 | 5.0 | 0.00 | 0.99 | 0.23 | 99 | 1011.9 |
| 20260507115338 | 49 | 309 | 0.0 | 0.0 | 0.00 | 0.23 | 0.23 | 99 | 1028.8 |
| 20260507115203 | 49 | 325 | 0.0 | 0.0 | 0.00 | 0.99 | 0.23 | 99 | 1012.0 |
| 20260507114834 | 48 | 302 | 0.0 | 0.0 | 0.00 | 0.23 | 0.23 | 99 | 1028.6 |
| 20260507114707 | 48 | 302 | 0.0 | 0.0 | 0.00 | 0.99 | 0.23 | 99 | 1012.1 |
| 20260507114332 | 48 | 316 | 0.0 | 0.0 | 0.00 | 0.23 | 0.23 | 99 | 1028.7 |
| 20260507113829 | 48 | 314 | 0.0 | 0.0 | 0.00 | 0.23 | 0.23 | 99 | 1028.6 |
| 20260507113703 | 49 | 309 | 0.0 | 0.0 | 0.00 | 0.99 | 0.23 | 99 | 1011.9 |
| 20260507113326 | 48 | 307 | 0.0 | 0.0 | 0.00 | 0.23 | 0.23 | 99 | 1028.6 |
| 20260507113203 | 49 | 307 | 0.0 | 0.0 | 0.00 | 0.99 | 0.23 | 99 | 1011.8 |
| 20260507112824 | 48 | 308 | 0.0 | 0.0 | 0.00 | 0.23 | 0.23 | 99 | 1028.5 |
| 20260507112320 | 48 | 303 | 0.0 | 0.0 | 0.00 | 0.23 | 0.23 | 99 | 1028.4 |
| 20260507112204 | 48 | 234 | 0.0 | 0.0 | 0.00 | 0.99 | 0.23 | 99 | 1011.8 |
| 20260507111818 | 48 | 290 | 0.0 | 0.0 | 0.00 | 0.23 | 0.23 | 99 | 1028.5 |
| 20260507111314 | 48 | 286 | 0.0 | 0.0 | 0.00 | 0.23 | 0.23 | 99 | 1028.6 |
| 20260507111203 | 48 | 286 | 0.0 | 1.0 | 0.00 | 0.99 | 0.23 | 99 | 1011.8 |
| 20260507110811 | 48 | 308 | 0.0 | 0.0 | 0.00 | 0.23 | 0.23 | 99 | 1028.3 |
| 20260507110703 | 48 | 314 | 0.0 | 0.0 | 0.00 | 0.99 | 0.23 | 99 | 1011.8 |
| 20260507110307 | 49 | 316 | 0.0 | 0.0 | 0.00 | 0.23 | 0.23 | 99 | 1028.2 |
| 20260507110204 | 49 | 316 | 0.0 | 0.0 | 0.00 | 0.99 | 0.23 | 99 | 1011.6 |
| 20260507105804 | 49 | 304 | 0.0 | 0.0 | 0.00 | 0.23 | 0.23 | 99 | 1028.3 |
| 20260507105704 | 49 | 307 | 0.0 | 0.0 | 0.00 | 0.99 | 0.23 | 99 | 1011.6 |
| 20260507105300 | 49 | 312 | 0.0 | 0.0 | 0.00 | 0.23 | 0.23 | 99 | 1028.1 |
| 20260507105205 | 49 | 312 | 0.0 | 0.0 | 0.00 | 0.99 | 0.23 | 99 | 1011.5 |
| 20260507104758 | 50 | 312 | 0.0 | 0.0 | 0.00 | 0.23 | 0.23 | 99 | 1027.9 |
| 20260507104704 | 49 | 311 | 0.0 | 0.0 | 0.00 | 0.99 | 0.23 | 99 | 1011.4 |
| 20260507104254 | 49 | 312 | 0.0 | 0.0 | 0.00 | 0.23 | 0.23 | 99 | 1028.1 |
| 20260507103750 | 49 | 315 | 0.0 | 0.0 | 0.00 | 0.23 | 0.23 | 99 | 1028.2 |
| 20260507103703 | 49 | 315 | 0.0 | 0.0 | 0.00 | 0.99 | 0.23 | 99 | 1011.3 |
| 20260507103246 | 49 | 315 | 0.0 | 0.0 | 0.00 | 0.23 | 0.23 | 99 | 1027.8 |
| 20260507103203 | 49 | 315 | 0.0 | 0.0 | 0.00 | 0.99 | 0.23 | 99 | 1011.1 |
| 20260507102743 | 49 | 315 | 0.0 | 0.0 | 0.00 | 0.23 | 0.23 | 99 | 1027.7 |
| 20260507102705 | 49 | 315 | 0.0 | 0.0 | 0.00 | 0.99 | 0.23 | 99 | 1010.9 |
| 20260507102239 | 49 | 315 | 0.0 | 0.0 | 0.00 | 0.23 | 0.23 | 99 | 1027.7 |
| 20260507102203 | 49 | 315 | 0.0 | 0.0 | 0.00 | 0.99 | 0.23 | 99 | 1010.8 |
| 20260507101735 | 49 | 315 | 0.0 | 0.0 | 0.00 | 0.23 | 0.23 | 99 | 1027.5 |
| 20260507101704 | 49 | 315 | 0.0 | 0.0 | 0.00 | 0.99 | 0.23 | 99 | 1010.9 |
| 20260507101231 | 49 | 315 | 0.0 | 0.0 | 0.00 | 0.23 | 0.23 | 99 | 1027.6 |
| 20260507101204 | 49 | 315 | 0.0 | 1.0 | 0.00 | 0.99 | 0.23 | 99 | 1010.9 |
| 20260507100728 | 49 | 287 | 0.0 | 0.0 | 0.00 | 0.23 | 0.23 | 99 | 1027.5 |
| 20260507100704 | 49 | 287 | 0.0 | 0.0 | 0.00 | 0.99 | 0.23 | 99 | 1010.8 |
| 20260507100227 | 48 | 287 | 0.0 | 0.0 | 0.00 | 0.23 | 0.23 | 99 | 1027.7 |
| 20260507100205 | 48 | 287 | 0.0 | 0.0 | 0.00 | 0.99 | 0.23 | 99 | 1011.0 |
| 20260507095724 | 48 | 287 | 0.0 | 0.0 | 0.00 | 0.23 | 0.23 | 99 | 1027.3 |
| 20260507095703 | 48 | 287 | 0.0 | 0.0 | 0.00 | 0.99 | 0.23 | 99 | 1010.8 |
| 20260507095221 | 48 | 307 | 0.0 | 0.0 | 0.00 | 0.23 | 0.23 | 99 | 1027.3 |
| 20260507095204 | 48 | 307 | 0.0 | 0.0 | 0.00 | 0.99 | 0.23 | 99 | 1010.8 |
| 20260507094718 | 48 | 307 | 0.0 | 0.0 | 0.00 | 0.23 | 0.23 | 99 | 1027.2 |
| 20260507094704 | 48 | 307 | 0.0 | 0.0 | 0.00 | 0.99 | 0.23 | 99 | 1010.7 |
| 20260507094215 | 48 | 307 | 0.0 | 0.0 | 0.00 | 0.23 | 0.23 | 99 | 1027.3 |
| 20260507094205 | 48 | 307 | 0.0 | 0.0 | 0.00 | 0.99 | 0.23 | 99 | 1010.6 |
| 20260507093711 | 48 | 307 | 0.0 | 0.0 | 0.00 | 0.23 | 0.23 | 99 | 1027.2 |
| 20260507093705 | 48 | 305 | 0.0 | 0.0 | 0.00 | 0.99 | 0.23 | 99 | 1010.5 |
| 20260507093210 | 48 | 315 | 0.0 | 0.0 | 0.00 | 0.23 | 0.23 | 99 | 1027.2 |
| 20260507093203 | 48 | 317 | 0.0 | 5.0 | 0.00 | 0.99 | 0.23 | 99 | 1010.4 |
| 20260507092707 | 48 | 331 | 0.0 | 5.0 | 0.00 | 0.23 | 0.23 | 99 | 1027.0 |
| 20260507092704 | 48 | 306 | 0.0 | 5.0 | 0.00 | 0.99 | 0.23 | 99 | 1010.3 |
| 20260507092204 | 48 | 309 | 0.0 | 0.0 | 0.00 | 0.99 | 0.23 | 99 | 1010.4 |
| 20260507091705 | 48 | 321 | 0.0 | 0.0 | 0.00 | 0.99 | 0.23 | 99 | 1010.3 |
| 20260507091700 | 48 | 321 | 0.0 | 0.0 | 0.00 | 0.23 | 0.23 | 99 | 1026.9 |
| 20260507091205 | 49 | 297 | 0.0 | 0.0 | 0.00 | 0.99 | 0.23 | 99 | 1010.5 |
| 20260507091156 | 48 | 297 | 0.0 | 0.0 | 0.00 | 0.23 | 0.23 | 99 | 1027.2 |
| 20260507090652 | 48 | 338 | 0.0 | 0.0 | 0.00 | 0.23 | 0.23 | 99 | 1027.1 |
| 20260507090149 | 48 | 338 | 0.0 | 0.0 | 0.00 | 0.23 | 0.23 | 99 | 1027.2 |
| 20260507085646 | 48 | 338 | 0.0 | 0.0 | 0.00 | 0.23 | 0.23 | 99 | 1026.8 |
| 20260507085203 | 48 | 338 | 0.0 | 0.0 | 0.00 | 0.99 | 0.23 | 99 | 1010.1 |
| 20260507085143 | 48 | 338 | 0.0 | 0.0 | 0.00 | 0.23 | 0.23 | 99 | 1026.9 |
| 20260507084704 | 48 | 338 | 0.0 | 0.0 | 0.00 | 0.99 | 0.23 | 99 | 1010.1 |
| 20260507084640 | 48 | 338 | 0.0 | 0.0 | 0.00 | 0.23 | 0.23 | 99 | 1026.8 |
| 20260507084205 | 48 | 338 | 0.0 | 0.0 | 0.00 | 0.99 | 0.23 | 99 | 1010.2 |
| 20260507084136 | 48 | 338 | 0.0 | 0.0 | 0.00 | 0.23 | 0.23 | 99 | 1026.8 |
| 20260507083704 | 48 | 338 | 0.0 | 0.0 | 0.00 | 0.99 | 0.23 | 99 | 1010.2 |
| 20260507083633 | 48 | 338 | 0.0 | 0.0 | 0.00 | 0.23 | 0.23 | 99 | 1026.9 |
| 20260507083205 | 49 | 338 | 0.0 | 0.0 | 0.00 | 0.99 | 0.23 | 99 | 1010.3 |
| 20260507083130 | 49 | 338 | 0.0 | 0.0 | 0.00 | 0.23 | 0.23 | 99 | 1026.9 |
| 20260507082704 | 49 | 338 | 0.0 | 0.0 | 0.00 | 0.99 | 0.23 | 99 | 1010.4 |
| 20260507082625 | 49 | 338 | 0.0 | 0.0 | 0.00 | 0.23 | 0.23 | 99 | 1027.0 |
| 20260507082204 | 49 | 338 | 0.0 | 0.0 | 0.00 | 0.99 | 0.23 | 99 | 1010.3 |
| 20260507082122 | 49 | 338 | 0.0 | 0.0 | 0.00 | 0.23 | 0.23 | 99 | 1027.0 |
| 20260507081704 | 49 | 338 | 0.0 | 0.0 | 0.00 | 0.99 | 0.23 | 99 | 1010.0 |
| 20260507081619 | 49 | 338 | 0.0 | 0.0 | 0.00 | 0.23 | 0.23 | 99 | 1026.6 |
| 20260507081204 | 49 | 338 | 0.0 | 0.0 | 0.00 | 0.99 | 0.23 | 99 | 1010.2 |
| 20260507081115 | 49 | 338 | 0.0 | 0.0 | 0.00 | 0.23 | 0.23 | 99 | 1026.9 |
| 20260507080612 | 49 | 338 | 0.0 | 0.0 | 0.00 | 0.23 | 0.23 | 99 | 1027.0 |
| 20260507080204 | 49 | 338 | 0.0 | 0.0 | 0.00 | 0.99 | 0.23 | 99 | 1010.2 |
| 20260507080109 | 49 | 338 | 0.0 | 0.0 | 0.00 | 0.23 | 0.23 | 99 | 1026.9 |
| 20260507075704 | 49 | 338 | 0.0 | 0.0 | 0.00 | 0.99 | 0.23 | 99 | 1010.4 |
| 20260507075603 | 49 | 338 | 0.0 | 0.0 | 0.00 | 0.23 | 0.23 | 99 | 1027.0 |
| 20260507075204 | 49 | 338 | 0.0 | 0.0 | 0.00 | 0.99 | 0.23 | 99 | 1010.4 |
| 20260507075100 | 49 | 338 | 0.0 | 0.0 | 0.00 | 0.23 | 0.23 | 99 | 1027.1 |
| 20260507074705 | 49 | 338 | 0.0 | 0.0 | 0.01 | 0.99 | 0.23 | 99 | 1010.5 |
| 20260507074557 | 49 | 338 | 0.0 | 0.0 | 0.00 | 0.23 | 0.23 | 99 | 1027.1 |
| 20260507074203 | 49 | 338 | 0.0 | 0.0 | 0.01 | 0.99 | 0.23 | 99 | 1010.3 |
| 20260507074055 | 49 | 338 | 0.0 | 0.0 | 0.00 | 0.23 | 0.23 | 99 | 1027.0 |
| 20260507073550 | 49 | 338 | 0.0 | 0.0 | 0.00 | 0.23 | 0.23 | 99 | 1027.2 |
| 20260507073203 | 49 | 338 | 0.0 | 0.0 | 0.04 | 0.99 | 0.23 | 99 | 1010.5 |
| 20260507073047 | 49 | 338 | 0.0 | 0.0 | 0.00 | 0.23 | 0.23 | 99 | 1027.2 |
| 20260507072703 | 49 | 338 | 0.0 | 0.0 | 0.05 | 0.99 | 0.23 | 99 | 1010.7 |
| 20260507072545 | 49 | 338 | 0.0 | 0.0 | 0.00 | 0.23 | 0.23 | 99 | 1027.4 |
| 20260507072203 | 49 | 338 | 0.0 | 0.0 | 0.07 | 0.99 | 0.23 | 99 | 1010.7 |
| 20260507072042 | 49 | 338 | 0.0 | 0.0 | 0.00 | 0.23 | 0.23 | 99 | 1027.5 |
| 20260507071703 | 49 | 338 | 0.0 | 0.0 | 0.07 | 0.99 | 0.23 | 99 | 1010.8 |
| 20260507071539 | 49 | 338 | 0.0 | 0.0 | 0.00 | 0.23 | 0.23 | 99 | 1027.4 |
| 20260507071035 | 49 | 338 | 0.0 | 0.0 | 0.00 | 0.23 | 0.23 | 99 | 1027.5 |
| 20260507070532 | 50 | 338 | 0.0 | 0.0 | 0.00 | 0.23 | 0.23 | 99 | 1027.3 |
| 20260507070024 | 50 | 338 | 0.0 | 0.0 | 0.00 | 0.23 | 0.23 | 99 | 1027.4 |
| 20260507065703 | 49 | 338 | 0.0 | 0.0 | 0.07 | 0.99 | 0.23 | 99 | 1010.9 |
| 20260507065520 | 49 | 338 | 0.0 | 0.0 | 0.05 | 0.23 | 0.23 | 99 | 1027.5 |
| 20260507065018 | 50 | 338 | 0.0 | 0.0 | 0.05 | 0.23 | 0.23 | 99 | 1027.3 |
| 20260507064704 | 49 | 333 | 0.0 | 0.0 | 0.06 | 0.98 | 0.22 | 99 | 1011.1 |
| 20260507064516 | 50 | 328 | 0.0 | 0.0 | 0.12 | 0.22 | 0.22 | 99 | 1027.6 |
| 20260507064202 | 50 | 355 | 0.0 | 1.0 | 0.11 | 0.98 | 0.22 | 99 | 1010.8 |
| 20260507064014 | 50 | 354 | 0.0 | 0.0 | 0.24 | 0.22 | 0.22 | 99 | 1027.7 |
| 20260507063510 | 50 | 1 | 0.0 | 3.0 | 0.12 | 0.19 | 0.19 | 99 | 1027.6 |
| 20260507063204 | 50 | 309 | 0.0 | 8.0 | 0.11 | 0.95 | 0.19 | 99 | 1011.2 |
| 20260507063008 | 50 | 289 | 0.0 | 3.0 | 0.12 | 0.18 | 0.18 | 99 | 1027.9 |
| 20260507062703 | 50 | 354 | 4.0 | 8.0 | 0.10 | 0.95 | 0.18 | 99 | 1010.8 |
| 20260507062504 | 50 | 355 | 4.0 | 5.0 | 0.05 | 0.17 | 0.17 | 99 | 1027.5 |
| 20260507062204 | 50 | 350 | 1.0 | 8.0 | 0.08 | 0.93 | 0.16 | 99 | 1010.8 |
| 20260507062003 | 50 | 354 | 0.0 | 8.0 | 0.00 | 0.16 | 0.16 | 99 | 1027.6 |
| 20260507061500 | 50 | 338 | 3.0 | 7.0 | 0.00 | 0.16 | 0.16 | 99 | 1027.7 |
| 20260507061204 | 50 | 351 | 1.0 | 9.0 | 0.11 | 0.93 | 0.16 | 99 | 1010.7 |
| 20260507060958 | 50 | 345 | 1.0 | 10.0 | 0.00 | 0.16 | 0.16 | 99 | 1027.4 |
| 20260507060705 | 50 | 355 | 1.0 | 8.0 | 0.12 | 0.93 | 0.16 | 99 | 1011.0 |
| 20260507060455 | 50 | 326 | 0.0 | 5.0 | 0.00 | 0.16 | 0.16 | 99 | 1027.4 |
| 20260507060203 | 50 | 30 | 1.0 | 7.0 | 0.12 | 0.93 | 0.16 | 99 | 1010.6 |
| 20260507055951 | 51 | 314 | 0.0 | 3.0 | 0.00 | 0.16 | 0.16 | 99 | 1027.4 |
| 20260507055446 | 51 | 350 | 1.0 | 5.0 | 0.07 | 0.16 | 0.16 | 99 | 1027.4 |
| 20260507055203 | 51 | 355 | 1.0 | 8.0 | 0.15 | 0.93 | 0.16 | 99 | 1010.6 |
| 20260507054943 | 51 | 13 | 2.0 | 5.0 | 0.31 | 0.16 | 0.16 | 99 | 1027.2 |
| 20260507054703 | 51 | 3 | 0.0 | 7.0 | 0.16 | 0.93 | 0.16 | 99 | 1010.7 |
| 20260507054439 | 51 | 35 | 0.0 | 2.0 | 0.35 | 0.15 | 0.15 | 99 | 1027.1 |
| 20260507054203 | 51 | 345 | 2.0 | 7.0 | 0.11 | 0.87 | 0.11 | 99 | 1010.7 |
| 20260507053937 | 51 | 350 | 3.0 | 5.0 | 0.19 | 0.11 | 0.11 | 99 | 1027.3 |
| 20260507053705 | 51 | 0 | 1.0 | 5.0 | 0.10 | 0.86 | 0.10 | 99 | 1010.7 |
| 20260507053434 | 51 | 328 | 0.0 | 0.0 | 0.07 | 0.09 | 0.09 | 99 | 1027.6 |
| 20260507053204 | 51 | 4 | 3.0 | 8.0 | 0.08 | 0.84 | 0.08 | 99 | 1010.5 |
| 20260507052933 | 51 | 29 | 3.0 | 8.0 | 0.05 | 0.08 | 0.08 | 99 | 1026.9 |
| 20260507052703 | 51 | 339 | 0.0 | 7.0 | 0.08 | 0.84 | 0.08 | 99 | 1010.9 |
| 20260507052430 | 51 | 311 | 0.0 | 7.0 | 0.17 | 0.08 | 0.08 | 99 | 1027.6 |
| 20260507052204 | 51 | 5 | 1.0 | 5.0 | 0.08 | 0.84 | 0.08 | 99 | 1010.9 |
| 20260507051927 | 51 | 346 | 0.0 | 5.0 | 0.12 | 0.06 | 0.06 | 99 | 1027.5 |
| 20260507051704 | 51 | 326 | 0.0 | 8.0 | 0.06 | 0.82 | 0.06 | 99 | 1011.2 |
| 20260507051424 | 51 | 335 | 4.0 | 8.0 | 0.07 | 0.05 | 0.05 | 98 | 1027.7 |
| 20260507050921 | 52 | 302 | 0.0 | 3.0 | 0.05 | 0.04 | 0.04 | 98 | 1027.4 |
| 20260507050704 | 52 | 359 | 3.0 | 9.0 | 0.04 | 0.80 | 0.04 | 98 | 1010.5 |
| 20260507050418 | 52 | 339 | 1.0 | 7.0 | 0.12 | 0.04 | 0.04 | 97 | 1026.9 |
| 20260507045915 | 53 | 358 | 0.0 | 5.0 | 0.19 | 0.03 | 0.03 | 97 | 1026.6 |
| 20260507045411 | 53 | 355 | 1.0 | 8.0 | 0.12 | 0.02 | 0.02 | 96 | 1027.2 |
| 20260507044908 | 53 | 300 | 0.0 | 3.0 | 0.00 | 0.00 | 0.00 | 96 | 1027.2 |
| 20260507044704 | 53 | 326 | 1.0 | 13.0 | 0.38 | 0.76 | 0.00 | 95 | 1010.4 |
| 20260507044405 | 53 | 298 | 5.0 | 13.0 | 0.00 | 0.00 | 0.00 | 95 | 1026.5 |
| 20260507044204 | 53 | 357 | 1.0 | 8.0 | 0.38 | 0.76 | 0.00 | 95 | 1009.9 |
| 20260507043901 | 53 | 355 | 3.0 | 5.0 | 0.00 | 0.00 | 0.00 | 95 | 1026.8 |
| 20260507043357 | 54 | 344 | 3.0 | 10.0 | 0.00 | 0.00 | 0.00 | 94 | 1026.3 |
| 20260507043203 | 54 | 2 | 1.0 | 13.0 | 0.38 | 0.76 | 0.00 | 94 | 1009.7 |
| 20260507042853 | 54 | 338 | 3.0 | 5.0 | 0.00 | 0.00 | 0.00 | 94 | 1026.5 |
| 20260507042703 | 54 | 357 | 6.0 | 13.0 | 0.38 | 0.76 | 0.00 | 94 | 1010.0 |
| 20260507042349 | 54 | 31 | 5.0 | 7.0 | 0.00 | 0.00 | 0.00 | 94 | 1026.7 |
| 20260507041846 | 54 | 305 | 2.0 | 11.0 | 0.00 | 0.00 | 0.00 | 95 | 1026.7 |
| 20260507041704 | 54 | 3 | 5.0 | 13.0 | 0.38 | 0.76 | 0.00 | 95 | 1010.0 |
| 20260507041343 | 54 | 27 | 3.0 | 10.0 | 0.00 | 0.00 | 0.00 | 96 | 1026.5 |
| 20260507041203 | 55 | 18 | 3.0 | 12.0 | 0.38 | 0.76 | 0.00 | 96 | 1010.0 |
| 20260507040840 | 55 | 67 | 6.0 | 11.0 | 0.00 | 0.00 | 0.00 | 96 | 1026.7 |
| 20260507040336 | 56 | 15 | 2.0 | 5.0 | 0.00 | 0.00 | 0.00 | 97 | 1026.2 |
| 20260507040205 | 56 | 3 | 0.0 | 3.0 | 0.38 | 0.76 | 0.00 | 97 | 1009.3 |
| 20260507035832 | 56 | 7 | 0.0 | 2.0 | 0.00 | 0.38 | 0.38 | 97 | 1025.9 |
| 20260507035703 | 56 | 339 | 0.0 | 5.0 | 0.00 | 0.38 | 0.38 | 96 | 1009.7 |
| 20260507035328 | 56 | 319 | 0.0 | 0.0 | 0.00 | 0.38 | 0.38 | 97 | 1026.5 |
| 20260507035205 | 56 | 319 | 1.0 | 5.0 | 0.00 | 0.38 | 0.38 | 96 | 1009.9 |
| 20260507034826 | 56 | 322 | 0.0 | 3.0 | 0.00 | 0.38 | 0.38 | 96 | 1026.5 |
| 20260507034704 | 56 | 311 | 0.0 | 8.0 | 0.00 | 0.38 | 0.38 | 96 | 1010.3 |
| 20260507034322 | 56 | 307 | 0.0 | 7.0 | 0.00 | 0.38 | 0.38 | 96 | 1026.7 |
| 20260507034203 | 56 | 348 | 2.0 | 12.0 | 0.00 | 0.38 | 0.38 | 97 | 1010.2 |
| 20260507033820 | 56 | 308 | 2.0 | 5.0 | 0.00 | 0.38 | 0.38 | 97 | 1026.8 |
| 20260507033703 | 56 | 4 | 3.0 | 14.0 | 0.00 | 0.38 | 0.38 | 97 | 1009.9 |
| 20260507033318 | 56 | 305 | 2.0 | 8.0 | 0.00 | 0.38 | 0.38 | 97 | 1026.3 |
| 20260507032815 | 56 | 22 | 3.0 | 8.0 | 0.00 | 0.38 | 0.38 | 98 | 1026.3 |
| 20260507032703 | 56 | 345 | 6.0 | 14.0 | 0.00 | 0.38 | 0.38 | 98 | 1009.7 |
| 20260507032311 | 57 | 330 | 4.0 | 11.0 | 0.00 | 0.38 | 0.38 | 99 | 1026.5 |
| 20260507032204 | 57 | 0 | 1.0 | 8.0 | 0.00 | 0.38 | 0.38 | 99 | 1009.7 |
| 20260507031808 | 57 | 317 | 0.0 | 5.0 | 0.00 | 0.38 | 0.38 | 99 | 1026.1 |
| 20260507031703 | 57 | 10 | 3.0 | 8.0 | 0.00 | 0.38 | 0.38 | 99 | 1009.6 |
| 20260507031304 | 57 | 327 | 0.0 | 0.0 | 0.00 | 0.38 | 0.38 | 99 | 1026.2 |
| 20260507031204 | 57 | 14 | 0.0 | 5.0 | 0.00 | 0.38 | 0.38 | 99 | 1009.5 |
| 20260507030800 | 57 | 321 | 0.0 | 0.0 | 0.00 | 0.38 | 0.38 | 99 | 1026.1 |
| 20260507030704 | 57 | 308 | 0.0 | 3.0 | 0.00 | 0.38 | 0.38 | 99 | 1009.5 |
| 20260507030258 | 57 | 356 | 0.0 | 0.0 | 0.00 | 0.38 | 0.38 | 99 | 1026.1 |
| 20260507030205 | 57 | 344 | 0.0 | 14.0 | 0.00 | 0.38 | 0.38 | 99 | 1009.1 |
| 20260507025755 | 58 | 343 | 0.0 | 8.0 | 0.00 | 0.38 | 0.38 | 99 | 1026.1 |
| 20260507025704 | 58 | 38 | 5.0 | 14.0 | 0.00 | 0.38 | 0.38 | 99 | 1009.4 |
| 20260507025253 | 59 | 313 | 0.0 | 0.0 | 0.00 | 0.38 | 0.38 | 99 | 1025.9 |
| 20260507025203 | 58 | 5 | 2.0 | 5.0 | 0.00 | 0.38 | 0.38 | 99 | 1009.5 |
| 20260507024751 | 59 | 315 | 0.0 | 0.0 | 0.00 | 0.38 | 0.38 | 99 | 1026.0 |
| 20260507024703 | 58 | 314 | 0.0 | 0.0 | 0.00 | 0.38 | 0.38 | 99 | 1009.2 |
| 20260507024247 | 59 | 313 | 0.0 | 0.0 | 0.00 | 0.38 | 0.38 | 99 | 1025.8 |
| 20260507024203 | 58 | 317 | 0.0 | 0.0 | 0.00 | 0.38 | 0.38 | 99 | 1009.4 |
| 20260507023743 | 59 | 311 | 0.0 | 0.0 | 0.00 | 0.38 | 0.38 | 99 | 1025.7 |
| 20260507023704 | 58 | 288 | 0.0 | 0.0 | 0.01 | 0.38 | 0.38 | 99 | 1008.9 |
| 20260507023240 | 59 | 315 | 0.0 | 0.0 | 0.00 | 0.38 | 0.38 | 99 | 1025.4 |
| 20260507023204 | 59 | 321 | 0.0 | 0.0 | 0.02 | 0.38 | 0.38 | 99 | 1008.8 |
| 20260507022737 | 59 | 324 | 0.0 | 0.0 | 0.00 | 0.38 | 0.38 | 99 | 1025.7 |
| 20260507022704 | 59 | 306 | 0.0 | 0.0 | 0.02 | 0.38 | 0.38 | 99 | 1009.0 |
| 20260507022233 | 59 | 322 | 0.0 | 0.0 | 0.00 | 0.38 | 0.38 | 99 | 1026.0 |
| 20260507022203 | 59 | 322 | 0.0 | 0.0 | 0.03 | 0.38 | 0.38 | 99 | 1009.1 |
| 20260507021730 | 59 | 328 | 0.0 | 0.0 | 0.00 | 0.38 | 0.38 | 99 | 1026.0 |
| 20260507021704 | 59 | 329 | 0.0 | 0.0 | 0.03 | 0.38 | 0.38 | 99 | 1009.2 |
| 20260507021225 | 59 | 327 | 0.0 | 0.0 | 0.00 | 0.38 | 0.38 | 99 | 1026.0 |
| 20260507021204 | 59 | 316 | 0.0 | 1.0 | 0.05 | 0.38 | 0.38 | 99 | 1009.3 |
| 20260507020724 | 60 | 313 | 0.0 | 0.0 | 0.00 | 0.38 | 0.38 | 99 | 1026.2 |
| 20260507020704 | 60 | 281 | 0.0 | 0.0 | 0.08 | 0.38 | 0.38 | 99 | 1009.4 |
| 20260507020220 | 60 | 272 | 0.0 | 0.0 | 0.00 | 0.38 | 0.38 | 99 | 1026.2 |
| 20260507020204 | 60 | 272 | 0.0 | 0.0 | 0.09 | 0.38 | 0.38 | 99 | 1009.5 |
| 20260507015718 | 60 | 316 | 0.0 | 0.0 | 0.00 | 0.38 | 0.38 | 99 | 1026.0 |
| 20260507015703 | 61 | 307 | 1.0 | 3.0 | 0.13 | 0.38 | 0.38 | 99 | 1009.5 |
| 20260507015215 | 61 | 297 | 0.0 | 0.0 | 0.00 | 0.38 | 0.38 | 99 | 1026.0 |
| 20260507015204 | 61 | 274 | 0.0 | 5.0 | 0.13 | 0.38 | 0.38 | 99 | 1009.4 |
| 20260507014711 | 61 | 311 | 0.0 | 0.0 | 0.07 | 0.38 | 0.38 | 99 | 1026.0 |
| 20260507014705 | 61 | 310 | 0.0 | 1.0 | 0.13 | 0.38 | 0.38 | 99 | 1009.3 |
| 20260507014208 | 62 | 309 | 0.0 | 0.0 | 0.12 | 0.38 | 0.38 | 99 | 1026.1 |
| 20260507014204 | 62 | 302 | 0.0 | 1.0 | 0.13 | 0.38 | 0.38 | 99 | 1009.5 |
| 20260507013704 | 63 | 323 | 0.0 | 0.0 | 0.05 | 0.37 | 0.37 | 99 | 1026.2 |
| 20260507013204 | 63 | 326 | 0.0 | 0.0 | 0.11 | 0.36 | 0.36 | 99 | 1009.3 |
| 20260507013202 | 63 | 325 | 0.0 | 0.0 | 0.07 | 0.36 | 0.36 | 99 | 1026.0 |
| 20260507012704 | 63 | 282 | 0.0 | 0.0 | 0.11 | 0.36 | 0.36 | 99 | 1008.9 |
| 20260507012659 | 63 | 282 | 0.0 | 0.0 | 0.07 | 0.36 | 0.36 | 99 | 1025.6 |
| 20260507012204 | 63 | 282 | 0.0 | 0.0 | 0.10 | 0.35 | 0.35 | 99 | 1009.0 |
| 20260507012154 | 63 | 282 | 0.0 | 0.0 | 0.12 | 0.35 | 0.35 | 99 | 1025.5 |
| 20260507011652 | 63 | 278 | 0.0 | 0.0 | 0.28 | 0.35 | 0.35 | 99 | 1025.8 |
| 20260507011148 | 63 | 278 | 0.0 | 0.0 | 0.24 | 0.33 | 0.33 | 99 | 1025.8 |
| 20260507010703 | 64 | 283 | 0.0 | 0.0 | 0.05 | 0.30 | 0.30 | 98 | 1009.0 |
| 20260507010643 | 64 | 230 | 0.0 | 0.0 | 0.31 | 0.30 | 0.30 | 98 | 1025.8 |
| 20260507010139 | 64 | 308 | 0.0 | 0.0 | 0.24 | 0.29 | 0.29 | 97 | 1025.4 |
| 20260507005704 | 64 | 260 | 0.0 | 0.0 | 0.00 | 0.25 | 0.25 | 96 | 1009.0 |
| 20260507005637 | 64 | 260 | 0.0 | 0.0 | 0.00 | 0.25 | 0.25 | 96 | 1025.7 |
| 20260507005203 | 64 | 260 | 0.0 | 0.0 | 0.00 | 0.25 | 0.25 | 95 | 1008.6 |
| 20260507005133 | 64 | 260 | 0.0 | 0.0 | 0.00 | 0.25 | 0.25 | 95 | 1025.4 |
| 20260507004703 | 64 | 259 | 0.0 | 0.0 | 0.00 | 0.25 | 0.25 | 95 | 1008.6 |
| 20260507004630 | 64 | 259 | 0.0 | 0.0 | 0.00 | 0.25 | 0.25 | 95 | 1025.3 |
| 20260507004203 | 64 | 249 | 0.0 | 0.0 | 0.00 | 0.25 | 0.25 | 94 | 1008.7 |
| 20260507004127 | 64 | 248 | 0.0 | 0.0 | 0.00 | 0.25 | 0.25 | 94 | 1025.4 |
| 20260507003624 | 64 | 255 | 0.0 | 0.0 | 0.00 | 0.25 | 0.25 | 94 | 1025.1 |
| 20260507003203 | 64 | 274 | 0.0 | 0.0 | 0.00 | 0.25 | 0.25 | 94 | 1008.2 |
| 20260507003119 | 64 | 274 | 0.0 | 0.0 | 0.00 | 0.25 | 0.25 | 94 | 1024.9 |
| 20260507002704 | 64 | 290 | 0.0 | 0.0 | 0.00 | 0.25 | 0.25 | 94 | 1008.1 |
| 20260507002615 | 64 | 290 | 0.0 | 0.0 | 0.00 | 0.25 | 0.25 | 94 | 1024.8 |
| 20260507002203 | 64 | 290 | 0.0 | 0.0 | 0.00 | 0.25 | 0.25 | 95 | 1008.1 |
| 20260507002111 | 64 | 290 | 0.0 | 0.0 | 0.00 | 0.25 | 0.25 | 95 | 1024.7 |
| 20260507001705 | 64 | 290 | 0.0 | 0.0 | 0.00 | 0.25 | 0.25 | 95 | 1007.9 |
| 20260507001608 | 64 | 290 | 0.0 | 0.0 | 0.00 | 0.25 | 0.25 | 95 | 1024.6 |
| 20260507001203 | 64 | 290 | 0.0 | 0.0 | 0.00 | 0.25 | 0.25 | 95 | 1007.9 |
| 20260507001106 | 64 | 290 | 0.0 | 0.0 | 0.00 | 0.25 | 0.25 | 95 | 1024.6 |
| 20260507000703 | 64 | 290 | 0.0 | 0.0 | 0.00 | 0.25 | 0.25 | 95 | 1008.1 |
| 20260507000602 | 64 | 290 | 0.0 | 0.0 | 0.00 | 0.25 | 0.25 | 95 | 1024.8 |
| 20260507000205 | 64 | 290 | 0.0 | 0.0 | 0.00 | 0.25 | 0.25 | 94 | 1007.8 |
| 20260507000057 | 64 | 290 | 0.0 | 0.0 | 0.00 | 0.25 | 0.25 | 94 | 1024.5 |
| 20260506235703 | 64 | 290 | 0.0 | 1.0 | 0.00 | 0.25 | 0.25 | 94 | 1008.1 |
| 20260506235555 | 64 | 290 | 0.0 | 0.0 | 0.00 | 0.25 | 0.25 | 94 | 1024.8 |
| 20260506235203 | 64 | 290 | 0.0 | 1.0 | 0.00 | 0.25 | 0.25 | 94 | 1007.9 |
| 20260506235050 | 64 | 290 | 0.0 | 2.0 | 0.00 | 0.25 | 0.25 | 94 | 1024.6 |